GW4331 Weather Reports


time (UTC)temp
C
wind
direction
speed
KPH
gust
KPH
rain 1hr
cm
rain 24hr
cm
rain mn
cm
humidity
%
barometer
mb
20260510120036 13 143 0.0 0.0 0.00 0.00 0.00 86 1012.8
20260510114552 12 143 0.0 0.0 0.00 0.00 0.00 91 1012.6
20260510113020 11 143 0.0 0.0 0.00 0.00 0.00 93 1012.5
20260510111551 11 143 0.0 0.0 0.00 0.00 0.00 92 1012.2
20260510110016 10 143 0.0 0.0 0.00 0.00 0.00 92 1012.1
20260510104547 10 143 0.0 0.0 0.00 0.00 0.00 91 1011.8
20260510103013 10 143 0.0 0.0 0.00 0.00 0.00 90 1011.5
20260510101532 10 143 0.0 0.0 0.00 0.00 0.00 90 1011.3
20260510100110 11 143 0.0 0.0 0.00 0.00 0.00 90 1011.2
20260510094535 11 143 0.0 0.0 0.00 0.00 0.00 90 1011.2
20260510093050 11 143 0.0 0.0 0.00 0.00 0.00 89 1011.0
20260510091519 11 143 0.0 0.0 0.00 0.00 0.00 89 1011.0
20260510090047 11 143 0.0 0.0 0.00 0.00 0.00 88 1010.9
20260510084603 12 143 0.0 0.0 0.00 0.00 0.00 89 1010.8
20260510083032 12 143 0.0 0.0 0.00 0.00 0.00 88 1010.7
20260510081548 12 143 0.0 0.0 0.00 0.00 0.00 87 1010.7
20260510080013 12 143 0.0 0.0 0.00 0.00 0.00 87 1010.4
20260510074550 12 143 0.0 0.0 0.00 0.00 0.00 85 1010.3
20260510073117 12 143 0.0 0.0 0.00 0.00 0.00 85 1010.2
20260510071528 13 143 0.0 0.0 0.00 0.00 0.00 83 1010.0
20260510070043 13 143 0.0 1.6 0.00 0.00 0.00 83 1010.0
20260510064529 13 127 0.0 1.6 0.00 0.00 0.00 84 1009.8
20260510063041 13 127 0.0 0.0 0.00 0.00 0.00 82 1009.9
20260510061558 14 127 0.0 1.6 0.00 0.00 0.00 81 1009.8
20260510060028 14 127 0.0 1.6 0.00 0.00 0.00 81 1009.7
20260510054545 15 127 0.0 0.0 0.00 0.00 0.00 80 1009.9
20260510053022 15 118 0.0 1.6 0.00 0.00 0.00 80 1009.8
20260510051548 14 84 0.0 0.0 0.00 0.00 0.00 82 1009.8
20260510050055 14 216 0.0 0.0 0.00 0.00 0.00 81 1009.8
20260510044522 13 216 0.0 0.0 0.00 0.00 0.00 82 1009.7
20260510043036 14 216 0.0 0.0 0.00 0.00 0.00 81 1009.7
20260510041504 14 216 0.0 0.0 0.00 0.00 0.00 80 1009.8
20260510040044 14 216 0.0 0.0 0.00 0.00 0.00 82 1009.9
20260510034613 13 216 0.0 0.0 0.00 0.00 0.00 82 1009.8
20260510033020 13 216 0.0 0.0 0.00 0.00 0.00 81 1009.5
20260510031536 14 216 0.0 0.0 0.00 0.00 0.00 80 1009.4
20260510030006 14 216 0.0 0.0 0.00 0.00 0.00 79 1009.3
20260510024538 14 216 0.0 0.0 0.00 0.00 0.00 78 1009.3
20260510023055 15 216 0.0 0.0 0.00 0.00 0.00 77 1009.0
20260510021530 15 216 0.0 0.0 0.00 0.00 0.00 77 1009.0
20260510020057 15 216 0.0 0.0 0.00 0.00 0.00 75 1008.9
20260510014524 16 216 0.0 0.0 0.00 0.00 0.00 73 1008.6
20260510013043 16 216 0.0 0.0 0.00 0.00 0.00 72 1008.5
20260510011511 16 216 0.0 0.0 0.00 0.00 0.00 70 1008.3
20260510010046 17 216 0.0 0.0 0.00 0.00 0.00 68 1008.2
20260510004617 17 216 0.0 0.0 0.00 0.00 0.00 66 1008.0
20260510003037 18 216 0.0 0.0 0.00 0.00 0.00 65 1007.8
20260510001503 19 216 0.0 0.0 0.00 0.00 0.00 62 1007.8
20260510000036 20 216 0.0 0.0 0.00 0.00 0.00 60 1007.6
20260509234506 21 216 0.0 0.0 0.00 0.00 0.00 57 1007.5
20260509233041 21 216 0.0 0.0 0.00 0.00 0.00 54 1007.3
20260509231511 22 205 0.0 3.2 0.00 0.00 0.00 53 1007.4
20260509230042 22 188 0.0 3.2 0.00 0.00 0.00 52 1007.4
20260509224513 22 157 0.0 0.0 0.00 0.00 0.00 52 1007.3
20260509223048 22 170 0.0 0.0 0.00 0.00 0.00 52 1007.4
20260509221502 22 170 0.0 0.0 0.00 0.00 0.00 52 1007.5
20260509220042 23 170 0.0 0.0 0.00 0.00 0.00 51 1007.5
20260509214502 23 155 0.0 1.6 0.00 0.00 0.00 50 1007.5
20260509213037 23 144 0.0 4.8 0.00 0.00 0.00 49 1007.4
20260509211553 23 123 0.0 4.8 0.00 0.00 0.00 50 1007.3
20260509210023 24 183 0.0 6.4 0.00 0.00 0.00 48 1007.1
20260509204555 24 158 0.0 4.8 0.00 0.00 0.00 49 1007.0
20260509203033 23 34 0.0 4.8 0.00 0.00 0.00 51 1007.0
20260509201556 23 105 1.6 4.8 0.00 0.00 0.00 49 1007.2
20260509200033 23 165 0.0 6.4 0.00 0.00 0.00 52 1007.4
20260509194550 23 150 1.6 4.8 0.00 0.00 0.00 53 1007.6
20260509193013 22 146 0.0 3.2 0.00 0.00 0.00 55 1008.0
20260509191544 22 86 0.0 3.2 0.00 0.00 0.00 55 1008.2
20260509190008 22 77 0.0 3.2 0.00 0.00 0.00 57 1008.4
20260509184538 22 129 0.0 6.4 0.00 0.00 0.00 57 1008.6
20260509183005 21 129 0.0 1.6 0.00 0.00 0.00 60 1008.8
20260509181537 21 181 0.0 3.2 0.00 0.00 0.00 58 1009.0
20260509180056 21 198 0.0 3.2 0.00 0.00 0.00 58 1009.2
20260509174540 21 245 0.0 8.0 0.00 0.00 0.00 57 1009.3
20260509173050 22 191 1.6 11.3 0.00 0.00 0.00 56 1009.5
20260509171604 21 187 1.6 6.4 0.00 0.00 0.00 58 1009.7
20260509170034 20 267 1.6 4.8 0.00 0.00 0.00 58 1009.7
20260509164605 20 169 1.6 8.0 0.00 0.00 0.00 57 1009.7
20260509163027 20 206 0.0 9.7 0.00 0.00 0.00 58 1009.6
20260509161547 20 23 0.0 3.2 0.00 0.00 0.00 58 1009.8
20260509154532 20 207 1.6 6.4 0.00 0.00 0.00 56 1009.9
20260509153052 21 103 1.6 12.9 0.00 0.00 0.00 53 1010.1
20260509151512 21 159 1.6 8.0 0.00 0.00 0.00 54 1010.2
20260509150043 20 162 1.6 6.4 0.00 0.00 0.00 56 1010.1
20260509144600 19 152 1.6 4.8 0.00 0.00 0.00 60 1010.4
20260509143029 18 128 0.0 11.3 0.00 0.00 0.00 61 1010.8
20260509141600 18 220 1.6 6.4 0.00 0.00 0.00 62 1010.8
20260509140018 17 249 0.0 6.4 0.00 0.00 0.00 65 1010.9
20260509134547 16 221 1.6 8.0 0.00 0.00 0.00 65 1011.1
20260509133012 16 195 0.0 4.8 0.00 0.00 0.00 66 1011.1
20260509131541 15 205 0.0 8.0 0.00 0.00 0.00 67 1011.2
20260509130057 15 153 0.0 6.4 0.00 0.00 0.00 68 1011.3
20260509124524 15 144 0.0 4.8 0.00 0.00 0.00 69 1011.3
20260509123042 14 134 0.0 1.6 0.00 0.00 0.00 70 1011.2
20260509121509 13 160 0.0 4.8 0.00 0.00 0.00 71 1011.1